sat.trackr.live / text

‹ back to catalog

STARLINK-31670

NORAD 59490 · 2024-071G

PAYLOAD ACTIVE UNKNOWN

§ Identity

Operator
Country
US
Launch date
2024-04-13
Launch site
AFETR
Launch vehicle
Mass (kg)
RCS (m²)

Purposes: comms

External: N2YO · Heavens-Above · Gunter

§ Orbital elements

Epoch: 2026-05-25T01:25:06.100032Z

Period
94.27 min
Inclination
43.0003°
Eccentricity
0.0000844
Mean motion
15.27589966 rev/d
Perigee alt
482.4 km
Apogee alt
483.6 km
Semi-major
6,861.2 km
B*
7.1731e-5
RAAN
279.8619°
Arg perigee
305.5525°
Mean anomaly
54.5248°
Rev number
11,975

§ Raw data

STARLINK-316701 59490U 24071G   26145.05909838  .00001713  00000+0  71731-4 0  99952 59490  43.0003 279.8619 0000844 305.5525  54.5248 15.27589966119751

JSON: /api/v1/satellites/59490 · /tle

For live sub-satellite position, see the globe view (requires WebGL).

§ Visibility from observer

Set your observer location to see the next 7 days of passes ≥ 10°. The values pass through the URL so the page stays shareable.

No JS? Fill the form by hand. The geolocation button needs JavaScript.